Regional Weather Roundup
Issued by NWS

Home | Current Version | Previous Version | Text Only | Print | Product List | Glossary On
Versions: 1 2 3 4 5 6 7 8 9 10 11 12 13 14 15 16 17 18 19 20 21 22 23 24 25 26 27 28 29 30 31 32 33 34 35 36 37 38 39 40 41 42 43 44 45 46 47 48 49 50
000
ASUS43 KMKX 071300
RWRWI

WISCONSIN REGIONAL WEATHER ROUNDUP
NATIONAL WEATHER SERVICE MILWAUKEE/SULLIVAN WI
800 AM CDT TUE JUL 07 2015

NOTE: "FAIR" INDICATES FEW OR NO CLOUDS BELOW 12,000 FEET WITH NO
SIGNIFICANT WEATHER AND/OR OBSTRUCTIONS TO VISIBILITY.

WIZ001-002-006>008-014>016-023>028-071400-
NORTHWEST WISCONSIN

CITY           SKY/WX    TMP DP  RH WIND       PRES   REMARKS
SUPERIOR ARPT  CLOUDY    56  47  73 N9        30.13R
ASHLAND        CLOUDY    57  50  77 N10       30.12R
HAYWARD        SUNNY     56  47  71 N7        30.13R
SIREN          PTSUNNY   55  46  71 NW8       30.14R
CUMBERLAND     CLOUDY    54  45  71 N8        30.13R
RICE LAKE      CLOUDY    55  47  75 NW5       30.14R
CHETEK         CLOUDY    54  48  79 N6        30.12R
LADYSMITH      CLOUDY    52  47  84 N7        30.13R
EAU CLAIRE     NOT AVBL
MENOMONIE      CLOUDY    56  48  74 N10       30.12R
NEW RICHMOND   PTSUNNY   55  50  83 N8        30.14S
OSCEOLA        MOSUNNY   54  49  82 N3        30.17R
$$

WIZ003>005-009-010-017-018-071400-
NORTH CENTRAL WISCONSIN

CITY           SKY/WX    TMP DP  RH WIND       PRES   REMARKS
MANITOWISH WTR CLOUDY    51  48  88 N8        30.08R
ARBOR VITAE    CLOUDY    53  48  83 N12G18    30.07R
WOODRUFF       CLOUDY    53  48  83 N12G18    30.07R
RHINELANDER    PTSUNNY   53  46  77 N8G17     30.08R
EAGLE RIVER    CLOUDY    52  45  76 N10       30.06R
LAND O LAKES   CLOUDY    51  47  83 N10       30.07R
PHILLIPS       CLOUDY    51  48  92 NW5       30.10R
TOMAHAWK       MOSUNNY   51  47  86 NW6       30.08R
MEDFORD        SUNNY     51  48  88 N10       30.08R
MERRILL        SUNNY     53  49  84 N5        30.07R
$$

WIZ029-030-035-036-043>047-071400-
CENTRAL WISCONSIN

CITY           SKY/WX    TMP DP  RH WIND       PRES   REMARKS
WAUSAU         SUNNY     56  47  71 N10       30.05R
MOSINEE        NOT AVBL
MARSHFIELD     SUNNY     56  46  69 N10       30.07R
STEVENS POINT  SUNNY     53  47  79 N9        30.05R
WAUPACA        CLOUDY    60  56  87 N5        30.03R FOG
WAUTOMA        NOT AVBL
WISC RAPIDS    SUNNY     57  47  69 N13       30.06R
CAMP DOUGLAS   NOT AVBL
$$

WIZ011>013-019>022-031-037>040-048>050-071400-
NORTHEAST WISCONSIN

CITY           SKY/WX    TMP DP  RH WIND       PRES   REMARKS
ANTIGO         SUNNY     53  47  82 N10       30.05R
SHAWANO        SUNNY     61  51  69 N10       30.03R
OCONTO         SUNNY     57  50  76 N7        30.01R
STURGEON BAY   PTSUNNY   57  46  67 N18       30.02R
GREEN BAY      CLOUDY    59  48  67 N12       30.02R
MANITOWOC      NOT AVBL
APPLETON       PTSUNNY   57  45  62 N13       30.02R
CLINTONVILLE   PTSUNNY   59  50  72 NE9       30.03R
OSHKOSH        MOSUNNY   61  47  59 N13       30.00R
$$

WIZ032>034-041-042-053>061-071400-
SOUTHWEST WISCONSIN

CITY           SKY/WX    TMP DP  RH WIND       PRES   REMARKS
LA CROSSE      MOSUNNY   59  50  72 N9        30.08R
SPARTA         SUNNY     57  49  76 N9        30.08R
VIROQUA        MOSUNNY   56  52  87 N9        30.07R
BOSCOBEL       CLOUDY    61  55  81 VRB6      30.05R HAZE
PRAIRIE DU CHI MOSUNNY   61  53  73 N9        30.04R HAZE
PLATTEVILLE    CLOUDY    59  56  91 N13G18    30.02R
$$

WIZ056-057-062-063-064-067-068-071400-
SOUTH CENTRAL WISCONSIN

CITY           SKY/WX    TMP DP  RH WIND       PRES   REMARKS
REEDSBURG      CLOUDY    57  54  89 N9        30.03R FOG
BARABOO/DELLS  CLOUDY    58  53  85 N8        30.03R HAZE
LONE ROCK      NOT AVBL
MINERAL POINT  PTSUNNY   59  55  88 N9        30.02R FOG
MADISON        CLOUDY    61  56  83 N8        30.00R SMOKE
MIDDLETON      CLOUDY    60  57  88 N10G16    30.01R
WATERTOWN      CLOUDY    60  60 100 N10       29.98S FOG
MONROE         PTSUNNY   61  57  88 N9        29.99R FOG
JANESVILLE     NOT AVBL
$$

WIZ051-052-058>065-066-070>072-071400-
SOUTHEAST WISCONSIN

CITY           SKY/WX    TMP DP  RH WIND       PRES   REMARKS
MILWAUKEE      CLOUDY    59  54  83 N10G22    29.98R
WAUKESHA       CLOUDY    55  54  94 N6        29.99R FOG
MILWAUKEE/TIMM CLOUDY    64  52  63 N12       29.98S
RACINE         CLOUDY    58  52  80 N15G22    29.99R
BURLINGTON     CLOUDY    56  54  93 NE7       29.98R
KENOSHA        CLOUDY    59  52  77 N12G20    29.98R
FOND DU LAC    SUNNY     62  51  67 MISG      30.00R
SHEBOYGAN      SUNNY     60  50  69 N10       29.99R
WEST BEND      CLOUDY    55  52  88 N7        29.99R
JUNEAU         CLOUDY    59  55  89 N12       30.00S FOG
$$

LSZ147-162-071400-
LAKE SUPERIOR

STATION/POSITION TIME  TEMP    WIND        PRES    WAVE
                       AIR SEA DIR/SP/G            HT/PER
                 (UTC) (F)     (DEG/KT/KT) (MB)    (FT/S)
W MID LAKE BUOY  1150   46 39  320/  8/ 10 1018.5R   1
DEVILS ISLAND    1200   55     330/ 13/ 15 1019.4R
PORT WING        1200   56     330/ 12/ 14 1019.6
SAXON HARBOR     1200   58     350/ 14/ 18 1018.6
$$

LMZ867-665-643>646-071400-
LAKE MICHIGAN

STATION/POSITION TIME  TEMP    WIND        PRES    WAVE
                       AIR SEA DIR/SP/G            HT/PER
                 (UTC) (F)     (DEG/KT/KT) (MB)    (FT/S)
CHAMBERS ISLAND  1200   58     320/ 17/ 21 1015.2R
N MID LAKE BUOY  1150   53 51  300/ 14/ 16 1013.5R   3/ 4
NORTHPORT PIER   1200   57     340/ 18/ 23 1014.9R
SISTER BAY       1214   58     360/ 20/ 24   N/A
ALGOMA LAKESHORE 1211          350/  9/ 13   N/A
KEWAUNEE LAKESHO 1200   57     350/  9/ 14 1014.4R
SHEBOYGAN LAKESH 1200   58     340/ 13/ 15 1015.0R
PORT WASHINGTON  1200   60     360/  6/  9 1015.6R
ATWATER BUOY     1200   58 58   10/ 14/ 17 1015.8R
MILWAUKEE LAKESH 1200   58     360/ 12/ 16   N/A
KENOSHA   LAKESH 1200   58      10/ 21/ 26 1014.2R
$$

TC  - TEMPERATURE IN CELSIUS
VSB - VISIBILITY IN STATUTE MILES
WCI - WIND CHILL INDEX
HX  - HEAT INDEX




USA.gov is the U.S. government's official web portal to all federal, state and local government web resources and services.